Date String (YYYY-MM-DD hh:mm:ss) UTC,Instrument flags,Ambient pressure (hPa),Sample flow (lpm),Bypass flow (lpm),Sample temperature (°C),Ambient temperature (°C),ASC tube jacket temperature (°C),LED temperature (°C),Box temperature (°C),Sample RH (%),Span deviation,Mass concentration (μg/m³),Mass concentration (μg/m³),Mass concentration (μg/m³)
DateTimeUTC,F1_M11,P_M11,Q1_M11,Q2_M11,T1_M11,T2_M11,T3_M11,T4_M11,T5_M11,U1_M11,ZSPAN_M11,X2_M11,X0_M11,X1_M11
2021-10-13 11:00:00,,0813.4,5.00,0.00,22.8,21.9,00.0,31.9,24.5,14.4,0000.0,0001.67,0008.17,0000.65
2021-10-13 11:01:00,,0813.4,5.01,0.00,22.8,21.9,00.0,31.9,24.5,14.8,0000.0,0001.68,0007.89,0000.63
2021-10-13 11:02:00,,0813.5,4.98,0.00,22.8,21.9,00.0,31.9,24.6,14.7,0000.0,0001.63,0008.27,0000.60
2021-10-13 11:03:00,,0813.5,5.00,0.00,22.8,21.9,00.0,31.9,24.6,14.5,0000.0,0001.63,0008.33,0000.57
2021-10-13 11:04:00,,0813.4,5.01,0.00,22.8,21.9,00.0,31.9,24.6,14.1,0000.0,0001.59,0007.59,0000.56
2021-10-13 11:05:00,,0813.5,5.00,0.00,22.8,21.9,00.0,31.9,24.6,14.0,0000.0,0001.57,0007.71,0000.55
2021-10-13 11:06:00,,0813.6,5.01,0.00,22.8,21.9,00.0,31.9,24.6,13.4,0000.0,0001.51,0006.91,0000.53
2021-10-13 11:07:00,,0813.5,4.99,0.00,22.8,21.9,00.0,31.9,24.6,14.2,0000.0,0001.48,0007.18,0000.51
2021-10-13 11:08:00,,0813.4,5.01,0.00,22.8,21.9,00.0,31.9,24.6,14.1,0000.0,0001.46,0007.82,0000.49
2021-10-13 11:09:00,,0813.4,5.00,0.00,22.8,21.9,00.0,31.9,24.5,13.8,0000.0,0001.43,0007.53,0000.47
2021-10-13 11:10:00,,0813.5,5.00,0.00,22.8,21.9,00.0,31.9,24.5,13.8,0000.0,0001.39,0007.20,0000.45
2021-10-13 11:11:00,,0813.3,5.00,0.00,22.8,21.8,00.0,31.9,24.5,13.3,0000.0,0001.38,0007.01,0000.44
2021-10-13 11:12:00,,0813.3,5.00,0.00,22.8,21.9,00.0,31.9,24.6,13.4,0000.0,0001.32,0006.16,0000.41
2021-10-13 11:13:00,,0813.4,5.01,0.00,22.8,21.9,00.0,31.9,24.6,13.2,0000.0,0001.29,0005.43,0000.38
2021-10-13 11:14:00,,0813.4,5.00,0.00,22.8,21.9,00.0,31.9,24.6,13.0,0000.0,0001.27,0005.23,0000.35
2021-10-13 11:15:00,,0813.4,5.00,0.00,22.8,21.9,00.0,31.9,24.7,13.2,0000.0,0001.28,0005.80,0000.34
2021-10-13 11:16:00,,0813.5,5.00,0.00,22.8,22.0,00.0,31.9,24.7,13.4,0000.0,0001.21,0005.70,0000.31
2021-10-13 11:17:00,,0813.7,5.00,0.00,22.9,22.0,00.0,31.9,24.7,14.0,0000.0,0001.21,0005.58,0000.30
2021-10-13 11:18:00,,0813.5,5.00,0.00,22.9,22.0,00.0,32.0,24.8,13.8,0000.0,0001.22,0004.99,0000.29
2021-10-13 11:19:00,,0813.6,5.00,0.00,22.9,22.0,00.0,32.0,24.8,14.5,0000.0,0001.23,0004.63,0000.29
2021-10-13 11:20:00,,0813.5,5.01,0.00,22.9,22.1,00.0,32.0,24.8,16.1,0000.0,0001.31,0005.44,0000.31
2021-10-13 11:21:00,,0814.0,4.99,0.00,22.9,22.1,00.0,32.0,24.8,16.0,0000.0,0001.34,0005.55,0000.33
2021-10-13 11:22:00,,0814.0,4.99,0.00,22.9,22.1,00.0,32.0,24.8,16.7,0000.0,0001.35,0005.57,0000.35
2021-10-13 11:23:00,,0813.7,5.00,0.00,22.9,22.1,00.0,32.0,24.7,18.0,0000.0,0001.43,0005.91,0000.48
2021-10-13 11:24:00,,0814.1,5.01,0.00,22.9,22.1,00.0,32.0,24.7,18.2,0000.0,0001.57,0007.47,0000.63
2021-10-13 11:25:00,,0813.8,4.99,0.00,22.9,22.1,00.0,32.0,24.7,18.4,0000.0,0001.70,0007.84,0000.79
2021-10-13 11:26:00,,0813.9,5.00,0.00,22.9,22.1,00.0,32.0,24.8,18.0,0000.0,0001.83,0007.61,0000.95
2021-10-13 11:27:00,,0813.5,5.00,0.00,22.9,22.1,00.0,32.0,24.8,17.8,0000.0,0001.98,0007.53,0001.10
2021-10-13 11:28:00,,0813.3,5.01,0.00,22.9,22.0,00.0,32.0,24.7,17.6,0000.0,0002.10,0007.70,0001.24
2021-10-13 11:29:00,,0813.2,5.00,0.00,22.8,22.0,00.0,32.0,24.7,14.7,0000.0,0002.13,0007.75,0001.30
2021-10-13 11:30:00,,0813.2,5.00,0.00,22.8,21.9,00.0,32.0,24.6,14.3,0000.0,0002.09,0007.32,0001.32
2021-10-13 11:31:00,,0813.3,5.01,0.00,22.8,21.9,00.0,32.0,24.5,13.9,0000.0,0002.05,0006.78,0001.31
2021-10-13 11:32:00,,0813.5,4.98,0.00,22.8,21.9,00.0,32.0,24.5,14.3,0000.0,0002.04,0006.65,0001.32
2021-10-13 11:33:00,,0813.4,5.01,0.00,22.7,21.8,00.0,32.0,24.4,14.7,0000.0,0002.07,0006.68,0001.33
2021-10-13 11:34:00,,0813.3,4.98,0.00,22.7,21.8,00.0,31.9,24.4,15.5,0000.0,0002.02,0006.40,0001.26
2021-10-13 11:35:00,,0813.4,5.00,0.00,22.7,21.8,00.0,31.9,24.5,15.9,0000.0,0001.91,0005.27,0001.18
2021-10-13 11:36:00,,0813.6,5.00,0.00,22.8,21.8,00.0,31.9,24.5,16.2,0000.0,0001.82,0004.81,0001.11
2021-10-13 11:37:00,,0813.5,5.01,0.00,22.8,21.8,00.0,31.9,24.6,16.4,0000.0,0001.72,0004.59,0001.03
2021-10-13 11:38:00,,0813.3,4.99,0.00,22.8,21.8,00.0,31.9,24.6,16.0,0000.0,0001.70,0004.73,0000.94
2021-10-13 11:39:00,,0813.2,5.01,0.00,22.8,21.9,00.0,31.9,24.6,15.7,0000.0,0001.59,0004.31,0000.85
2021-10-13 11:40:00,,0813.4,5.00,0.00,22.8,21.9,00.0,31.9,24.6,16.1,0000.0,0001.61,0004.31,0000.85
2021-10-13 11:41:00,,0813.6,4.99,0.00,22.8,21.9,00.0,31.9,24.6,16.2,0000.0,0001.68,0004.18,0000.89
2021-10-13 11:42:00,,0813.6,5.01,0.00,22.7,21.9,00.0,31.9,24.5,16.4,0000.0,0001.78,0004.55,0000.94
2021-10-13 11:43:00,,0813.8,5.00,0.00,22.7,21.9,00.0,31.9,24.5,15.7,0000.0,0001.84,0005.72,0000.98
2021-10-13 11:44:00,,0813.6,5.00,0.00,22.7,21.8,00.0,31.9,24.4,15.4,0000.0,0001.88,0006.72,0000.99
2021-10-13 11:45:00,,0813.4,5.00,0.00,22.7,21.8,00.0,31.9,24.4,13.9,0000.0,0001.88,0006.91,0000.98
2021-10-13 11:46:00,,0813.4,5.01,0.00,22.7,21.8,00.0,31.9,24.4,14.2,0000.0,0001.87,0006.51,0000.94
2021-10-13 11:47:00,,0813.5,5.00,0.00,22.7,21.8,00.0,31.9,24.4,14.1,0000.0,0001.81,0006.06,0000.89
2021-10-13 11:48:00,,0813.7,5.00,0.00,22.7,21.7,00.0,31.9,24.4,14.7,0000.0,0001.76,0006.02,0000.84
2021-10-13 11:49:00,,0813.4,4.99,0.00,22.7,21.7,00.0,31.8,24.4,15.1,0000.0,0001.66,0005.71,0000.80
2021-10-13 11:50:00,,0813.5,5.00,0.00,22.7,21.8,00.0,31.8,24.5,14.5,0000.0,0001.68,0005.74,0000.77
2021-10-13 11:51:00,,0813.5,5.00,0.00,22.7,21.8,00.0,31.8,24.5,14.7,0000.0,0001.62,0005.64,0000.74
2021-10-13 11:52:00,,0813.6,5.00,0.00,22.7,21.7,00.0,31.8,24.4,13.8,0000.0,0001.54,0005.63,0000.70
2021-10-13 11:53:00,,0813.5,5.00,0.00,22.7,21.8,00.0,31.8,24.5,14.0,0000.0,0001.45,0005.53,0000.65
2021-10-13 11:54:00,,0814.0,5.00,0.00,22.7,21.8,00.0,31.8,24.5,14.3,0000.0,0001.37,0004.93,0000.60
2021-10-13 11:55:00,,0813.2,5.00,0.00,22.7,21.8,00.0,31.8,24.5,14.3,0000.0,0001.30,0003.56,0000.57
2021-10-13 11:56:00,,0813.4,4.99,0.00,22.7,21.8,00.0,31.8,24.5,12.8,0000.0,0001.22,0003.13,0000.53
2021-10-13 11:57:00,,0813.6,5.00,0.00,22.6,21.8,00.0,31.8,24.4,13.0,0000.0,0001.16,0002.91,0000.50
2021-10-13 11:58:00,,0813.5,5.01,0.00,22.6,21.7,00.0,31.8,24.3,14.0,0000.0,0001.14,0002.92,0000.48
2021-10-13 11:59:00,,0813.5,5.00,0.00,22.6,21.7,00.0,31.8,24.3,14.9,0000.0,0001.08,0002.75,0000.46
